Home > Weather > Halton Hills > Past weeks

Flag for Canada Past Weather in Halton Hills, Ontario, Canada — Yesterday and Last 2 Weeks

Now
86 °F

Broken clouds.


Feels Like: 88 °F
Forecast: 68 / 82 °F
Wind: 16 mph from West

Location: Toronto Pearson International Airport

Current Time: Aug 25, 2016 at 2:51:20 PM

Latest Report: Aug 25, 2016 at 2:00 PM


Visibility: 15 mi

Pressure: 29.92 "Hg

Humidity: 52%

Dew Point: 66 °F

Location of Halton HillsLocation

Past Weather in Halton Hills — Graph

°F

Halton Hills Temperature Yesterday

Maximum temperature yesterday: 86 °F (at 4:00 PM)
Minimum temperature yesterday: 63 °F (at 5:00 AM)
Average temperature yesterday: 75 °F

High & Low Weather Summary for the Past Weeks

 TemperatureHumidityPressure
High95 °F (Aug 10, 3:00 PM)94% (Aug 13, 6:00 AM)30.25 "Hg (Aug 13, 6:00 AM)
Low57 °F (Aug 22, 6:00 AM)30% (Aug 10, 3:00 PM)29.56 "Hg (Aug 21, 5:00 AM)
Average76 °F68%29.96 "Hg
* Reported Aug 10 1:00 PM — Aug 25 1:00 PM, Halton Hills, Weather by CustomWeather, © 2016

Note: Actual official high and low records may vary slightly from our data, if they occured in-between our weather recording intervals... More about our weather records

Advertising

Halton Hills Weather History for the Previous 24 Hours

Scroll right to see more
 ConditionsComfort  
Time TempWeatherWind HumidityBarometerVisibility
1:00 PM
Thu, Aug 25
86 °FBroken clouds.10 mph52%29.91 "Hg15 mi
12:00 PM84 °FPartly sunny.16 mph58%29.93 "Hg15 mi
11:00 AM82 °FPartly sunny.17 mph66%29.93 "Hg15 mi
10:00 AM79 °FBroken clouds.8 mph79%29.92 "Hg15 mi
9:00 AM77 °FBroken clouds.10 mph83%29.91 "Hg15 mi
8:00 AM75 °FPartly sunny.6 mph89%29.92 "Hg15 mi
7:00 AM73 °FPartly cloudy.5 mph94%29.92 "Hg12 mi
6:00 AM72 °FPassing clouds.8 mph94%29.91 "Hg15 mi
5:00 AM72 °FPassing clouds.8 mph94%29.89 "Hg15 mi
4:00 AM72 °FPassing clouds.6 mph94%29.90 "Hg15 mi
3:00 AM72 °FPartly cloudy.8 mph94%29.90 "Hg15 mi
2:00 AM72 °FHeavy rain. Fog.14 mph94%29.92 "Hg6 mi
1:55 AM73 °FRain. Mostly cloudy.17 mph83%29.92 "Hg10 mi
1:00 AM77 °FPartly cloudy.8 mph65%29.93 "Hg15 mi
12:00 AM75 °FPartly cloudy.7 mph69%29.95 "Hg15 mi
11:00 PM
Wed, Aug 24
77 °FPassing clouds.6 mph57%29.97 "Hg15 mi
10:00 PM79 °FPartly cloudy.7 mph54%29.97 "Hg15 mi
9:00 PM81 °FPartly sunny.12 mph51%29.99 "Hg15 mi
8:00 PM81 °FBroken clouds.15 mph48%30.00 "Hg15 mi
7:00 PM82 °FPartly sunny.16 mph42%30.00 "Hg15 mi
6:00 PM84 °FBroken clouds.14 mph40%30.01 "Hg15 mi
5:00 PM84 °FBroken clouds.17 mph40%30.02 "Hg15 mi
4:00 PM86 °FPartly sunny.18 mph40%30.03 "Hg15 mi
3:00 PM84 °FPartly sunny.16 mph43%30.06 "Hg15 mi
2:00 PM82 °FPartly sunny.13 mph51%30.08 "Hg15 mi
Weather by CustomWeather, © 2016

See weather overviewHow to use our weather pages